C/2022 O1 ( ATLAS )

Japanese version
Home page
Updated on January 22, 2023

---------------------------------------------------------------------

* Profile

Discovery Date July 26, 2022
Magnitude 19.3 mag
Discoverer Asteroid Terrestrial-Impact Last Alert System (ATLAS) search program

* Orbital Elements

Epoch 2023 Feb. 25.0 TT = JDT 2460000.5
T 2022 Feb. 15.58327 TT                                 Rudenko
q   7.4302691            (2000.0)            P               Q
z  -0.0006043      Peri.  268.88805     +0.23599680     +0.64864199
 +/-0.0000005      Node    49.91375     +0.17062000     +0.70538734
e   1.0044903      Incl.   71.04312     -0.95665789     +0.28581860
>From 183 observations 2022 July 26-2023 Jan. 16, mean residual 0".5.

* Magnitudes Graph

        m1 = 5.5 + 5 log d + 10.0 log r

---------------------------------------------------------------------

The orbital elements are published on M.P.E.C. 2023-B57.
The magnitudes graphs are made with Comet for Windows.

---------------------------------------------------------------------

Copyright(C) Seiichi Yoshida (comet@aerith.net). All rights reserved.